"read_dt","SO2 (ppb)","flags","PMT voltage (V)","lamp voltage (V)","lamp intensity (Hz)","internal temp (C)","react chamber temp (C)","sample flow (l/min)","pres (mmHg)","SO2 bkg (ppb)","SO2 coefficient"
2014-06-04 00:00:00,1801E-3,5C000000,-0724,0845,12111,027.6,045.5,0.488,739.7,01.18,0.508
2014-06-04 00:01:00,1819E-3,5C000000,-0724,0846,12050,027.6,045.5,0.489,739.7,01.18,0.508
2014-06-04 00:02:00,1816E-3,5C000000,-0724,0846,11893,027.6,045.5,0.488,739.7,01.18,0.508
2014-06-04 00:03:00,1800E-3,5C000000,-0724,0846,12064,027.6,045.5,0.489,739.7,01.18,0.508
2014-06-04 00:04:00,1737E-3,5C000000,-0724,0845,12058,027.6,045.5,0.488,739.7,01.18,0.508
2014-06-04 00:05:00,1816E-3,5C000000,-0724,0845,12105,027.6,045.5,0.489,739.7,01.18,0.508
2014-06-04 00:06:00,1680E-3,5C000000,-0724,0846,12032,027.6,045.5,0.488,739.7,01.18,0.508
2014-06-04 00:07:00,1844E-3,5C000000,-0724,0845,12012,027.6,045.5,0.489,739.7,01.18,0.508
2014-06-04 00:08:00,1764E-3,5C000000,-0724,0846,12058,027.6,045.5,0.488,739.7,01.18,0.508
2014-06-04 00:09:00,1849E-3,5C000000,-0724,0845,12011,027.6,045.5,0.489,739.7,01.18,0.508
2014-06-04 00:10:00,1804E-3,5C000000,-0724,0845,12141,027.6,045.5,0.488,739.7,01.18,0.508
2014-06-04 00:11:00,1833E-3,5C000000,-0724,0846,12062,027.6,045.5,0.488,739.6,01.18,0.508
2014-06-04 00:12:00,1820E-3,5C000000,-0724,0846,12107,027.6,045.5,0.488,739.7,01.18,0.508
2014-06-04 00:13:00,1744E-3,5C000000,-0724,0845,12180,027.6,045.5,0.488,739.6,01.18,0.508
2014-06-04 00:14:00,1829E-3,5C000000,-0724,0844,12082,027.6,045.5,0.488,739.6,01.18,0.508
2014-06-04 00:15:00,1807E-3,5C000000,-0724,0845,12084,027.7,045.5,0.488,739.7,01.18,0.508
2014-06-04 00:16:00,1887E-3,5C000000,-0724,0845,12056,027.7,045.5,0.488,739.6,01.18,0.508
2014-06-04 00:17:00,1836E-3,5C000000,-0724,0846,12126,027.6,045.5,0.488,739.6,01.18,0.508
2014-06-04 00:18:00,1829E-3,5C000000,-0724,0844,12052,027.7,045.5,0.488,739.6,01.18,0.508
2014-06-04 00:19:00,1852E-3,5C000000,-0724,0846,12185,027.6,045.5,0.489,739.6,01.18,0.508
2014-06-04 00:20:00,1954E-3,5C000000,-0724,0845,12049,027.6,045.5,0.488,739.7,01.18,0.508
2014-06-04 00:21:00,1864E-3,5C000000,-0724,0844,12180,027.6,045.5,0.488,739.6,01.18,0.508
2014-06-04 00:22:00,1821E-3,5C000000,-0724,0846,11891,027.7,045.5,0.488,739.6,01.18,0.508
2014-06-04 00:23:00,1835E-3,5C000000,-0724,0845,12097,027.7,045.5,0.489,739.6,01.18,0.508
2014-06-04 00:24:00,1928E-3,5C000000,-0724,0846,11895,027.7,045.5,0.488,739.6,01.18,0.508
2014-06-04 00:25:00,1835E-3,5C000000,-0724,0845,12052,027.7,045.5,0.489,739.6,01.18,0.508
2014-06-04 00:26:00,1929E-3,5C000000,-0724,0846,11952,027.7,045.5,0.488,739.6,01.18,0.508
2014-06-04 00:27:00,1936E-3,5C000000,-0724,0846,11924,027.7,045.5,0.489,739.6,01.18,0.508
2014-06-04 00:28:00,1778E-3,5C000000,-0724,0846,12039,027.7,045.5,0.488,739.6,01.18,0.508
2014-06-04 00:29:00,1882E-3,5C000000,-0724,0846,12146,027.7,045.5,0.489,739.6,01.18,0.508
2014-06-04 00:30:00,1826E-3,5C000000,-0724,0845,11987,027.7,045.5,0.488,739.6,01.18,0.508
2014-06-04 00:31:00,1918E-3,5C000000,-0724,0846,11945,027.7,045.5,0.488,739.6,01.18,0.508
2014-06-04 00:32:00,1764E-3,5C000000,-0724,0845,12116,027.7,045.5,0.488,739.6,01.18,0.508
2014-06-04 00:33:00,1964E-3,5C000000,-0724,0846,12060,027.7,045.5,0.488,739.6,01.18,0.508
2014-06-04 00:34:00,1856E-3,5C000000,-0724,0846,12121,027.7,045.5,0.488,739.6,01.18,0.508
2014-06-04 00:35:00,1777E-3,5C000000,-0724,0847,12201,027.7,045.5,0.488,739.6,01.18,0.508
2014-06-04 00:36:00,1878E-3,5C000000,-0724,0845,11932,027.7,045.5,0.488,739.6,01.18,0.508
2014-06-04 00:37:00,1820E-3,5C000000,-0724,0845,12046,027.7,045.5,0.488,739.6,01.18,0.508
2014-06-04 00:38:00,1777E-3,5C000000,-0724,0846,12181,027.7,045.5,0.488,739.6,01.18,0.508
2014-06-04 00:39:00,1737E-3,5C000000,-0724,0845,12088,027.8,045.5,0.488,739.6,01.18,0.508
2014-06-04 00:40:00,1769E-3,5C000000,-0724,0846,12102,027.7,045.5,0.488,739.6,01.18,0.508
2014-06-04 00:41:00,1929E-3,5C000000,-0724,0846,12011,027.7,045.5,0.488,739.5,01.18,0.508
2014-06-04 00:42:00,1662E-3,5C000000,-0724,0846,12012,027.7,045.5,0.488,739.6,01.18,0.508
2014-06-04 00:43:00,1815E-3,5C000000,-0724,0846,12014,027.7,045.5,0.488,739.5,01.18,0.508
2014-06-04 00:44:00,1884E-3,5C000000,-0724,0846,11924,027.7,045.5,0.488,739.5,01.18,0.508
2014-06-04 00:45:00,1840E-3,5C000000,-0724,0846,12125,027.7,045.5,0.488,739.5,01.18,0.508
2014-06-04 00:46:00,1705E-3,5C000000,-0724,0845,11999,027.8,045.5,0.488,739.5,01.18,0.508
2014-06-04 00:47:00,1736E-3,5C000000,-0724,0846,12180,027.8,045.5,0.488,739.5,01.18,0.508
2014-06-04 00:48:00,1807E-3,5C000000,-0724,0846,12111,027.8,045.5,0.488,739.5,01.18,0.508
2014-06-04 00:49:00,1914E-3,5C000000,-0724,0846,12118,027.8,045.5,0.488,739.5,01.18,0.508
2014-06-04 00:50:00,1798E-3,5C000000,-0724,0846,12016,027.8,045.5,0.488,739.5,01.18,0.508
2014-06-04 00:51:00,1860E-3,5C000000,-0724,0847,11896,027.8,045.5,0.488,739.6,01.18,0.508
2014-06-04 00:52:00,1688E-3,5C000000,-0724,0847,12015,027.8,045.5,0.488,739.6,01.18,0.508
2014-06-04 00:53:00,1824E-3,5C000000,-0724,0846,12107,027.8,045.5,0.488,739.5,01.18,0.508
2014-06-04 00:54:00,1817E-3,5C000000,-0724,0845,11976,027.8,045.5,0.488,739.6,01.18,0.508
2014-06-04 00:55:00,1743E-3,5C000000,-0724,0846,12083,027.8,045.5,0.488,739.6,01.18,0.508
2014-06-04 00:56:00,1891E-3,5C000000,-0724,0846,12143,027.8,045.5,0.488,739.6,01.18,0.508
2014-06-04 00:57:00,1911E-3,5C000000,-0724,0845,12219,027.8,045.5,0.488,739.6,01.18,0.508
2014-06-04 00:58:00,1760E-3,5C000000,-0724,0846,11987,027.8,045.5,0.488,739.6,01.18,0.508
2014-06-04 00:59:00,1789E-3,5C000000,-0724,0846,11923,027.8,045.5,0.488,739.6,01.18,0.508
2014-06-04 01:00:00,1930E-3,5C000000,-0724,0846,12004,027.8,045.5,0.488,739.6,01.18,0.508
2014-06-04 01:01:00,1939E-3,5C000000,-0724,0846,12136,027.8,045.5,0.488,739.6,01.18,0.508
2014-06-04 01:02:00,1848E-3,5C000000,-0724,0845,12054,027.8,045.5,0.488,739.6,01.18,0.508
2014-06-04 01:03:00,1875E-3,5C000000,-0724,0845,11923,027.8,045.5,0.488,739.6,01.18,0.508
2014-06-04 01:04:00,1954E-3,5C000000,-0724,0846,12011,027.8,045.5,0.488,739.6,01.18,0.508
2014-06-04 01:05:00,1856E-3,5C000000,-0724,0845,12006,027.8,045.5,0.488,739.6,01.18,0.508
2014-06-04 01:06:00,1783E-3,5C000000,-0724,0845,11977,027.8,045.5,0.488,739.5,01.18,0.508
2014-06-04 01:07:00,1882E-3,5C000000,-0724,0845,12106,027.8,045.5,0.488,739.6,01.18,0.508
2014-06-04 01:08:00,1754E-3,5C000000,-0724,0845,12015,027.8,045.5,0.488,739.5,01.18,0.508
2014-06-04 01:09:00,1744E-3,5C000000,-0724,0846,11971,027.9,045.5,0.488,739.5,01.18,0.508
2014-06-04 01:10:00,1787E-3,5C000000,-0724,0845,11901,027.9,045.5,0.488,739.5,01.18,0.508
2014-06-04 01:11:00,1941E-3,5C000000,-0724,0845,12251,027.9,045.5,0.488,739.5,01.18,0.508
2014-06-04 01:12:00,1773E-3,5C000000,-0724,0847,12061,027.9,045.5,0.488,739.5,01.18,0.508
2014-06-04 01:13:00,1885E-3,5C000000,-0724,0847,11936,027.9,045.5,0.488,739.5,01.18,0.508
2014-06-04 01:14:00,1939E-3,5C000000,-0724,0847,12143,027.9,045.5,0.488,739.5,01.18,0.508
2014-06-04 01:15:00,2035E-3,5C000000,-0724,0846,12098,027.9,045.5,0.488,739.5,01.18,0.508
2014-06-04 01:16:00,1863E-3,5C000000,-0724,0845,12154,027.9,045.5,0.488,739.5,01.18,0.508
2014-06-04 01:17:00,1694E-3,5C000000,-0724,0847,11823,027.9,045.5,0.488,739.5,01.18,0.508
2014-06-04 01:18:00,1747E-3,5C000000,-0724,0846,12101,027.9,045.5,0.488,739.5,01.18,0.508
2014-06-04 01:19:00,1871E-3,5C000000,-0724,0846,12041,027.9,045.5,0.488,739.5,01.18,0.508
2014-06-04 01:20:00,1797E-3,5C000000,-0724,0845,11953,027.9,045.5,0.488,739.5,01.18,0.508
2014-06-04 01:21:00,1799E-3,5C000000,-0724,0847,11991,027.9,045.5,0.487,739.5,01.18,0.508
2014-06-04 01:22:00,1832E-3,5C000000,-0724,0845,12083,027.9,045.5,0.488,739.5,01.18,0.508
2014-06-04 01:23:00,1900E-3,5C000000,-0724,0847,11999,027.9,045.5,0.488,739.5,01.18,0.508
2014-06-04 01:24:00,1810E-3,5C000000,-0724,0845,11990,027.9,045.5,0.488,739.5,01.18,0.508
2014-06-04 01:25:00,1706E-3,5C000000,-0724,0846,12059,027.9,045.5,0.488,739.5,01.18,0.508
2014-06-04 01:26:00,1965E-3,5C000000,-0724,0845,12095,027.9,045.5,0.488,739.5,01.18,0.508
2014-06-04 01:27:00,1953E-3,5C000000,-0724,0846,11872,027.9,045.5,0.488,739.5,01.18,0.508
2014-06-04 01:28:00,1737E-3,5C000000,-0724,0845,12074,027.9,045.5,0.487,739.5,01.18,0.508
2014-06-04 01:29:00,1717E-3,5C000000,-0724,0847,12275,028.0,045.5,0.488,739.5,01.18,0.508
2014-06-04 01:30:00,1880E-3,5C000000,-0724,0846,11997,027.9,045.5,0.487,739.5,01.18,0.508
2014-06-04 01:31:00,1799E-3,5C000000,-0724,0847,12207,028.0,045.5,0.488,739.5,01.18,0.508
2014-06-04 01:32:00,1708E-3,5C000000,-0724,0846,11978,028.0,045.5,0.488,739.5,01.18,0.508
2014-06-04 01:33:00,1681E-3,5C000000,-0724,0846,12088,028.0,045.5,0.488,739.5,01.18,0.508
2014-06-04 01:34:00,1836E-3,5C000000,-0724,0846,12187,028.0,045.5,0.488,739.5,01.18,0.508
2014-06-04 01:35:00,1901E-3,5C000000,-0724,0845,11944,028.0,045.5,0.487,739.5,01.18,0.508
2014-06-04 01:36:00,1749E-3,5C000000,-0724,0845,12055,028.0,045.5,0.488,739.5,01.18,0.508
2014-06-04 01:37:00,1802E-3,5C000000,-0724,0846,11984,028.0,045.5,0.487,739.5,01.18,0.508
2014-06-04 01:38:00,1821E-3,5C000000,-0724,0846,11888,028.0,045.5,0.488,739.5,01.18,0.508
2014-06-04 01:39:00,1871E-3,5C000000,-0724,0846,12112,028.0,045.5,0.488,739.5,01.18,0.508
2014-06-04 01:40:00,1859E-3,5C000000,-0724,0846,11930,028.0,045.5,0.487,739.5,01.18,0.508
2014-06-04 01:41:00,1882E-3,5C000000,-0724,0846,11887,028.0,045.5,0.488,739.5,01.18,0.508
2014-06-04 01:42:00,1799E-3,5C000000,-0724,0845,11924,028.0,045.5,0.487,739.5,01.18,0.508
2014-06-04 01:43:00,1949E-3,5C000000,-0724,0846,11870,028.0,045.5,0.488,739.5,01.18,0.508
2014-06-04 01:44:00,1779E-3,5C000000,-0724,0847,12217,028.0,045.5,0.488,739.5,01.18,0.508
2014-06-04 01:45:00,1768E-3,5C000000,-0724,0847,11885,028.0,045.5,0.487,739.5,01.18,0.508
2014-06-04 01:46:00,1887E-3,5C000000,-0724,0846,12245,028.0,045.5,0.488,739.5,01.18,0.508
2014-06-04 01:47:00,1713E-3,5C000000,-0724,0846,12010,028.0,045.5,0.488,739.5,01.18,0.508
2014-06-04 01:48:00,1836E-3,5C000000,-0724,0845,12126,028.1,045.5,0.487,739.5,01.18,0.508
2014-06-04 01:49:00,1839E-3,5C000000,-0724,0845,11935,028.0,045.5,0.488,739.5,01.18,0.508
2014-06-04 01:50:00,1828E-3,5C000000,-0724,0846,12195,028.0,045.5,0.487,739.5,01.18,0.508
2014-06-04 01:51:00,1879E-3,5C000000,-0724,0846,12134,028.0,045.5,0.488,739.5,01.18,0.508
2014-06-04 01:52:00,1788E-3,5C000000,-0724,0845,11944,028.1,045.5,0.488,739.5,01.18,0.508
2014-06-04 01:53:00,1823E-3,5C000000,-0724,0846,11838,028.1,045.5,0.487,739.5,01.18,0.508
2014-06-04 01:54:00,1908E-3,5C000000,-0724,0846,12195,028.1,045.5,0.488,739.5,01.18,0.508
2014-06-04 01:55:00,1829E-3,5C000000,-0724,0846,12202,028.1,045.5,0.488,739.5,01.18,0.508
2014-06-04 01:56:00,1849E-3,5C000000,-0724,0846,12271,028.1,045.5,0.487,739.5,01.18,0.508
2014-06-04 01:57:00,1839E-3,5C000000,-0724,0846,12252,028.1,045.5,0.488,739.5,01.18,0.508
2014-06-04 01:58:00,1821E-3,5C000000,-0724,0846,11910,028.1,045.5,0.488,739.5,01.18,0.508
2014-06-04 01:59:00,1931E-3,5C000000,-0724,0846,11991,028.1,045.5,0.487,739.5,01.18,0.508
2014-06-04 02:00:00,1934E-3,5C000000,-0724,0846,12081,028.1,045.5,0.488,739.5,01.18,0.508
2014-06-04 02:01:00,1883E-3,5C000000,-0724,0846,12053,028.1,045.5,0.488,739.5,01.18,0.508
2014-06-04 02:02:00,1903E-3,5C000000,-0724,0845,11891,028.1,045.5,0.487,739.5,01.18,0.508
2014-06-04 02:03:00,1768E-3,5C000000,-0724,0845,12012,028.1,045.5,0.488,739.5,01.18,0.508
2014-06-04 02:04:00,1877E-3,5C000000,-0724,0845,11905,028.1,045.5,0.488,739.5,01.18,0.508
2014-06-04 02:05:00,1823E-3,5C000000,-0724,0846,12049,028.1,045.5,0.487,739.5,01.18,0.508
2014-06-04 02:06:00,1797E-3,5C000000,-0724,0846,11851,028.1,045.5,0.487,739.5,01.18,0.508
2014-06-04 02:07:00,1824E-3,5C000000,-0724,0846,12242,028.1,045.5,0.488,739.5,01.18,0.508
2014-06-04 02:08:00,1721E-3,5C000000,-0724,0846,12139,028.1,045.5,0.488,739.5,01.18,0.508
2014-06-04 02:09:00,1884E-3,5C000000,-0724,0846,12022,028.2,045.5,0.487,739.6,01.18,0.508
2014-06-04 02:10:00,1828E-3,5C000000,-0724,0846,12089,028.2,045.5,0.488,739.6,01.18,0.508
2014-06-04 02:11:00,1882E-3,5C000000,-0724,0846,11961,028.2,045.5,0.488,739.5,01.18,0.508
2014-06-04 02:12:00,1706E-3,5C000000,-0724,0845,12116,028.2,045.5,0.487,739.5,01.18,0.508
2014-06-04 02:13:00,1737E-3,5C000000,-0724,0846,12225,028.2,045.5,0.487,739.5,01.18,0.508
2014-06-04 02:14:00,1814E-3,5C000000,-0724,0846,12063,028.2,045.5,0.488,739.6,01.18,0.508
2014-06-04 02:15:00,1925E-3,5C000000,-0724,0846,12107,028.2,045.5,0.487,739.6,01.18,0.508
2014-06-04 02:16:00,1789E-3,5C000000,-0724,0845,11976,028.2,045.5,0.487,739.6,01.18,0.508
2014-06-04 02:17:00,1807E-3,5C000000,-0724,0846,12105,028.2,045.5,0.488,739.6,01.18,0.508
2014-06-04 02:18:00,1764E-3,5C000000,-0724,0847,12031,028.2,045.5,0.487,739.6,01.18,0.508
2014-06-04 02:19:00,1813E-3,5C000000,-0724,0847,12076,028.2,045.5,0.487,739.6,01.18,0.508
2014-06-04 02:20:00,1726E-3,5C000000,-0724,0847,12150,028.2,045.5,0.488,739.6,01.18,0.508
2014-06-04 02:21:00,1832E-3,5C000000,-0724,0847,12160,028.2,045.5,0.488,739.6,01.18,0.508
2014-06-04 02:22:00,1779E-3,5C000000,-0724,0846,12076,028.2,045.5,0.487,739.5,01.18,0.508
2014-06-04 02:23:00,1776E-3,5C000000,-0724,0845,11892,028.2,045.5,0.487,739.6,01.18,0.508
2014-06-04 02:24:00,1736E-3,5C000000,-0724,0846,12064,028.2,045.5,0.488,739.6,01.18,0.508
2014-06-04 02:25:00,1809E-3,5C000000,-0724,0846,12065,028.3,045.5,0.488,739.6,01.18,0.508
2014-06-04 02:26:00,1817E-3,5C000000,-0724,0846,11840,028.3,045.5,0.487,739.6,01.18,0.508
2014-06-04 02:27:00,1814E-3,5C000000,-0724,0846,11965,028.3,045.5,0.487,739.6,01.18,0.508
2014-06-04 02:28:00,1799E-3,5C000000,-0724,0846,11887,028.3,045.5,0.488,739.6,01.18,0.508
2014-06-04 02:29:00,1617E-3,5C000000,-0724,0846,12027,028.3,045.5,0.487,739.6,01.18,0.508
2014-06-04 02:30:00,1802E-3,5C000000,-0724,0845,11872,028.3,045.5,0.487,739.6,01.18,0.508
2014-06-04 02:31:00,1740E-3,5C000000,-0724,0846,11891,028.3,045.5,0.487,739.6,01.18,0.508
2014-06-04 02:32:00,1950E-3,5C000000,-0724,0846,12127,028.3,045.5,0.488,739.6,01.18,0.508
2014-06-04 02:33:00,1712E-3,5C000000,-0724,0846,11924,028.3,045.5,0.487,739.6,01.18,0.508
2014-06-04 02:34:00,1920E-3,5C000000,-0724,0846,11989,028.3,045.5,0.487,739.6,01.18,0.508
2014-06-04 02:35:00,1871E-3,5C000000,-0724,0846,11832,028.3,045.5,0.487,739.6,01.18,0.508
2014-06-04 02:36:00,1873E-3,5C000000,-0724,0845,11946,028.3,045.5,0.488,739.7,01.18,0.508
2014-06-04 02:37:00,1734E-3,5C000000,-0724,0846,12175,028.3,045.5,0.487,739.6,01.18,0.508
2014-06-04 02:38:00,1773E-3,5C000000,-0724,0847,12099,028.4,045.5,0.487,739.7,01.18,0.508
2014-06-04 02:39:00,1807E-3,5C000000,-0724,0846,11864,028.4,045.5,0.487,739.6,01.18,0.508
2014-06-04 02:40:00,1769E-3,5C000000,-0724,0846,12196,028.4,045.5,0.487,739.6,01.18,0.508
2014-06-04 02:41:00,1743E-3,5C000000,-0724,0845,11953,028.4,045.5,0.487,739.6,01.18,0.508
2014-06-04 02:42:00,1877E-3,5C000000,-0724,0846,11857,028.4,045.5,0.487,739.7,01.18,0.508
2014-06-04 02:43:00,1758E-3,5C000000,-0724,0846,12069,028.4,045.5,0.487,739.6,01.18,0.508
2014-06-04 02:44:00,1754E-3,5C000000,-0724,0846,12017,028.4,045.5,0.487,739.6,01.18,0.508
2014-06-04 02:45:00,1832E-3,5C000000,-0724,0847,11888,028.4,045.5,0.487,739.6,01.18,0.508
2014-06-04 02:46:00,1847E-3,5C000000,-0724,0846,11896,028.4,045.5,0.487,739.6,01.18,0.508
2014-06-04 02:47:00,1854E-3,5C000000,-0724,0846,11964,028.4,045.5,0.487,739.6,01.18,0.508
2014-06-04 02:48:00,1819E-3,5C000000,-0724,0846,12174,028.4,045.5,0.487,739.6,01.18,0.508
2014-06-04 02:49:00,1829E-3,5C000000,-0724,0846,11968,028.4,045.5,0.487,739.6,01.18,0.508
2014-06-04 02:50:00,1745E-3,5C000000,-0724,0845,12099,028.4,045.5,0.487,739.7,01.18,0.508
2014-06-04 02:51:00,1831E-3,5C000000,-0724,0846,11986,028.4,045.5,0.487,739.6,01.18,0.508
2014-06-04 02:52:00,1758E-3,5C000000,-0724,0846,11844,028.5,045.5,0.487,739.6,01.18,0.508
2014-06-04 02:53:00,1910E-3,5C000000,-0724,0845,12133,028.5,045.5,0.487,739.6,01.18,0.508
2014-06-04 02:54:00,1778E-3,5C000000,-0724,0846,12158,028.4,045.5,0.487,739.6,01.18,0.508
2014-06-04 02:55:00,1689E-3,5C000000,-0724,0844,11984,028.4,045.5,0.487,739.6,01.18,0.508
2014-06-04 02:56:00,1794E-3,5C000000,-0724,0846,12062,028.5,045.5,0.487,739.6,01.18,0.508
2014-06-04 02:57:00,1834E-3,5C000000,-0724,0846,11985,028.5,045.5,0.487,739.6,01.18,0.508
2014-06-04 02:58:00,1853E-3,5C000000,-0724,0846,12086,028.5,045.5,0.487,739.6,01.18,0.508
2014-06-04 02:59:00,1847E-3,5C000000,-0724,0846,12111,028.5,045.5,0.487,739.6,01.18,0.508
2014-06-04 03:00:00,1710E-3,5C000000,-0724,0847,12133,028.5,045.5,0.487,739.6,01.18,0.508
2014-06-04 03:01:00,1741E-3,5C000000,-0724,0845,12006,028.5,045.5,0.487,739.6,01.18,0.508
2014-06-04 03:02:00,1841E-3,5C000000,-0724,0846,12023,028.5,045.5,0.487,739.6,01.18,0.508
2014-06-04 03:03:00,1756E-3,5C000000,-0724,0846,12101,028.5,045.5,0.487,739.6,01.18,0.508
2014-06-04 03:04:00,1839E-3,5C000000,-0724,0847,12012,028.5,045.5,0.487,739.6,01.18,0.508
2014-06-04 03:05:00,1822E-3,5C000000,-0724,0846,11977,028.5,045.5,0.487,739.6,01.18,0.508
2014-06-04 03:06:00,1869E-3,5C000000,-0724,0845,12102,028.5,045.5,0.487,739.5,01.18,0.508
2014-06-04 03:07:00,1834E-3,5C000000,-0724,0845,12037,028.5,045.5,0.487,739.6,01.18,0.508
2014-06-04 03:08:00,1819E-3,5C000000,-0724,0846,11946,028.5,045.5,0.487,739.6,01.18,0.508
2014-06-04 03:09:00,1661E-3,5C000000,-0724,0845,12109,028.5,045.5,0.487,739.6,01.18,0.508
2014-06-04 03:10:00,1838E-3,5C000000,-0724,0845,11913,028.5,045.5,0.487,739.6,01.18,0.508
2014-06-04 03:11:00,1699E-3,5C000000,-0724,0846,11931,028.6,045.5,0.487,739.6,01.18,0.508
2014-06-04 03:12:00,1917E-3,5C000000,-0724,0846,12036,028.6,045.5,0.487,739.6,01.18,0.508
2014-06-04 03:13:00,1917E-3,5C000000,-0724,0846,12146,028.6,045.5,0.487,739.6,01.18,0.508
2014-06-04 03:14:00,1749E-3,5C000000,-0724,0846,12091,028.6,045.5,0.487,739.6,01.18,0.508
2014-06-04 03:15:00,1796E-3,5C000000,-0724,0846,12113,028.6,045.5,0.487,739.6,01.18,0.508
2014-06-04 03:16:00,1921E-3,5C000000,-0724,0846,11961,028.6,045.5,0.487,739.6,01.18,0.508
2014-06-04 03:17:00,1919E-3,5C000000,-0724,0846,11820,028.6,045.5,0.487,739.6,01.18,0.508
2014-06-04 03:18:00,1750E-3,5C000000,-0724,0847,12170,028.6,045.5,0.487,739.6,01.18,0.508
2014-06-04 03:19:00,1923E-3,5C000000,-0724,0846,12062,028.6,045.5,0.487,739.6,01.18,0.508
2014-06-04 03:20:00,1846E-3,5C000000,-0724,0846,12137,028.6,045.5,0.487,739.6,01.18,0.508
2014-06-04 03:21:00,1873E-3,5C000000,-0724,0846,12018,028.6,045.5,0.487,739.6,01.18,0.508
2014-06-04 03:22:00,1818E-3,5C000000,-0724,0847,11900,028.6,045.5,0.487,739.6,01.18,0.508
2014-06-04 03:23:00,1743E-3,5C000000,-0724,0846,12126,028.6,045.5,0.487,739.6,01.18,0.508
2014-06-04 03:24:00,1760E-3,5C000000,-0724,0847,11923,028.6,045.5,0.486,739.6,01.18,0.508
2014-06-04 03:25:00,1825E-3,5C000000,-0724,0847,11762,028.6,045.5,0.487,739.6,01.18,0.508
2014-06-04 03:26:00,1869E-3,5C000000,-0724,0846,12004,028.6,045.5,0.487,739.6,01.18,0.508
2014-06-04 03:27:00,1840E-3,5C000000,-0724,0846,12039,028.6,045.5,0.487,739.6,01.18,0.508
2014-06-04 03:28:00,1937E-3,5C000000,-0724,0846,11874,028.6,045.5,0.487,739.6,01.18,0.508
2014-06-04 03:29:00,1869E-3,5C000000,-0724,0846,12126,028.7,045.5,0.487,739.6,01.18,0.508
2014-06-04 03:30:00,1762E-3,5C000000,-0724,0846,11942,028.7,045.5,0.486,739.6,01.18,0.508
2014-06-04 03:31:00,1837E-3,5C000000,-0724,0845,12135,028.7,045.5,0.486,739.6,01.18,0.508
2014-06-04 03:32:00,1890E-3,5C000000,-0724,0846,12050,028.7,045.5,0.487,739.6,01.18,0.508
2014-06-04 03:33:00,1703E-3,5C000000,-0724,0845,12000,028.7,045.5,0.487,739.6,01.18,0.508
2014-06-04 03:34:00,1839E-3,5C000000,-0724,0847,12100,028.7,045.5,0.487,739.7,01.18,0.508
2014-06-04 03:35:00,1846E-3,5C000000,-0724,0845,12114,028.7,045.5,0.487,739.7,01.18,0.508
2014-06-04 03:36:00,1845E-3,5C000000,-0724,0846,12049,028.7,045.5,0.487,739.7,01.18,0.508
2014-06-04 03:37:00,1798E-3,5C000000,-0724,0846,12097,028.7,045.5,0.486,739.7,01.18,0.508
2014-06-04 03:38:00,1782E-3,5C000000,-0724,0846,12087,028.7,045.5,0.486,739.7,01.18,0.508
2014-06-04 03:39:00,1796E-3,5C000000,-0724,0846,12161,028.7,045.5,0.487,739.7,01.18,0.508
2014-06-04 03:40:00,1762E-3,5C000000,-0724,0845,11924,028.7,045.5,0.487,739.7,01.18,0.508
2014-06-04 03:41:00,1876E-3,5C000000,-0724,0846,12090,028.7,045.5,0.487,739.7,01.18,0.508
2014-06-04 03:42:00,1925E-3,5C000000,-0724,0845,12053,028.7,045.5,0.487,739.7,01.18,0.508
2014-06-04 03:43:00,1681E-3,5C000000,-0724,0845,12114,028.7,045.5,0.487,739.7,01.18,0.508
2014-06-04 03:44:00,1759E-3,5C000000,-0724,0846,12036,028.7,045.5,0.487,739.7,01.18,0.508
2014-06-04 03:45:00,1687E-3,5C000000,-0724,0846,12079,028.7,045.5,0.486,739.7,01.18,0.508
2014-06-04 03:46:00,1904E-3,5C000000,-0724,0846,12152,028.7,045.5,0.486,739.7,01.18,0.508
2014-06-04 03:47:00,1777E-3,5C000000,-0724,0845,12205,028.8,045.5,0.487,739.7,01.18,0.508
2014-06-04 03:48:00,1924E-3,5C000000,-0724,0846,12132,028.8,045.5,0.487,739.7,01.18,0.508
2014-06-04 03:49:00,1911E-3,5C000000,-0724,0846,11940,028.8,045.5,0.487,739.7,01.18,0.508
2014-06-04 03:50:00,1986E-3,5C000000,-0724,0845,11893,028.7,045.5,0.487,739.7,01.18,0.508
2014-06-04 03:51:00,1728E-3,5C000000,-0724,0846,11913,028.8,045.5,0.487,739.7,01.18,0.508
2014-06-04 03:52:00,1804E-3,5C000000,-0724,0846,12210,028.8,045.5,0.486,739.7,01.18,0.508
2014-06-04 03:53:00,1903E-3,5C000000,-0724,0846,12114,028.8,045.5,0.486,739.7,01.18,0.508
2014-06-04 03:54:00,1875E-3,5C000000,-0724,0846,12007,028.8,045.5,0.486,739.7,01.18,0.508
2014-06-04 03:55:00,1800E-3,5C000000,-0724,0845,12207,028.8,045.5,0.487,739.6,01.18,0.508
2014-06-04 03:56:00,1806E-3,5C000000,-0724,0846,12199,028.8,045.5,0.487,739.7,01.18,0.508
2014-06-04 03:57:00,1737E-3,5C000000,-0724,0846,12168,028.8,045.5,0.487,739.7,01.18,0.508
2014-06-04 03:58:00,1928E-3,5C000000,-0724,0846,12129,028.8,045.5,0.487,739.7,01.18,0.508
2014-06-04 03:59:00,1824E-3,5C000000,-0724,0846,11914,028.8,045.5,0.487,739.6,01.18,0.508
2014-06-04 04:00:00,1894E-3,5C000000,-0724,0846,12161,028.8,045.5,0.487,739.6,01.18,0.508
2014-06-04 04:01:00,1794E-3,5C000000,-0724,0846,12162,028.8,045.5,0.486,739.7,01.18,0.508
2014-06-04 04:02:00,1890E-3,5C000000,-0724,0845,11888,028.8,045.5,0.486,739.7,01.18,0.508
2014-06-04 04:03:00,1871E-3,5C000000,-0724,0846,12186,028.8,045.5,0.486,739.6,01.18,0.508
2014-06-04 04:04:00,1772E-3,5C000000,-0724,0846,11997,028.9,045.5,0.487,739.6,01.18,0.508
2014-06-04 04:05:00,1842E-3,5C000000,-0724,0846,11931,028.8,045.5,0.487,739.6,01.18,0.508
2014-06-04 04:06:00,1851E-3,5C000000,-0724,0846,11960,028.8,045.5,0.487,739.6,01.18,0.508
2014-06-04 04:07:00,1887E-3,5C000000,-0724,0847,11828,028.9,045.5,0.487,739.7,01.18,0.508
2014-06-04 04:08:00,1872E-3,5C000000,-0724,0846,12066,028.8,045.5,0.487,739.6,01.18,0.508
2014-06-04 04:09:00,1672E-3,5C000000,-0724,0846,11921,028.9,045.5,0.486,739.6,01.18,0.508
2014-06-04 04:10:00,1941E-3,5C000000,-0724,0847,11722,028.9,045.5,0.486,739.6,01.18,0.508
2014-06-04 04:11:00,1786E-3,5C000000,-0724,0846,12022,028.9,045.5,0.486,739.6,01.18,0.508
2014-06-04 04:12:00,1840E-3,5C000000,-0724,0846,11885,028.9,045.5,0.486,739.6,01.18,0.508
2014-06-04 04:13:00,1854E-3,5C000000,-0724,0846,11977,028.9,045.5,0.486,739.6,01.18,0.508
2014-06-04 04:14:00,1767E-3,5C000000,-0724,0846,12103,028.9,045.5,0.487,739.7,01.18,0.508
2014-06-04 04:15:00,1898E-3,5C000000,-0724,0847,11994,028.9,045.5,0.487,739.7,01.18,0.508
2014-06-04 04:16:00,1820E-3,5C000000,-0724,0846,11894,028.9,045.5,0.487,739.6,01.18,0.508
2014-06-04 04:17:00,1775E-3,5C000000,-0724,0847,11951,028.9,045.5,0.487,739.7,01.18,0.508
2014-06-04 04:18:00,1918E-3,5C000000,-0724,0845,12089,028.9,045.5,0.487,739.7,01.18,0.508
2014-06-04 04:19:00,1891E-3,5C000000,-0724,0847,12044,028.9,045.5,0.486,739.7,01.18,0.508
2014-06-04 04:20:00,1865E-3,5C000000,-0724,0846,12189,028.9,045.5,0.486,739.6,01.18,0.508